This is the latest recevied weather packets stored in our database for station/object SHLBYV-WX. If no packets are shown the sender has not sent any weather packets the latest 10 day(s).
| Time | Temp. | Humidity | Pressure | Rain* | Wind** | Luminosity | Snow |
|---|---|---|---|---|---|---|---|
| 1777726879 | 2.78° C | 73% | 989.2 hPa | 0 mm | - | - | - |
| 1777725950 | 2.22° C | 79% | 988.4 hPa | 0 mm | - | - | - |
| 1777725068 | 1.67° C | 78% | 989.3 hPa | 0 mm | - | - | - |
| 1777724150 | 1.11° C | 78% | 989.3 hPa | 0 mm | - | - | - |
| 1777723290 | 0.56° C | 78% | 989.3 hPa | 0 mm | - | - | - |
| 1777722350 | 0.56° C | 85% | 989 hPa | 0 mm | - | - | - |
| 1777721472 | 0° C | 85% | 988.9 hPa | 0 mm | - | - | - |
| 1777720550 | 0° C | 85% | 988.9 hPa | 0 mm | - | - | - |
| 1777719679 | -0.56° C | 85% | 988.9 hPa | 0 mm | - | - | - |
| 1777718750 | -0.56° C | 83% | 988.7 hPa | 0 mm | - | - | - |
| 1777717868 | -0.56° C | 81% | 989 hPa | 0 mm | - | - | - |
| 1777716950 | -0.56° C | 81% | 989 hPa | 0 mm | - | - | - |
| 1777716079 | -0.56° C | 81% | 989 hPa | 0 mm | - | - | - |
| 1777715150 | -0.56° C | 79% | 988.2 hPa | 0 mm | - | - | - |
| 1777713350 | -0.56° C | 82% | 988.5 hPa | 0 mm | - | - | - |
| 1777712479 | -0.56° C | 82% | 988.5 hPa | 0 mm | - | - | - |
| 1777711549 | -0.56° C | 80% | 988.3 hPa | 0 mm | - | - | - |
| 1777710669 | -0.56° C | 82% | 988.4 hPa | 0 mm | - | - | - |
| 1777709750 | -0.56° C | 82% | 988.4 hPa | 0 mm | - | - | - |
| 1777708882 | 0° C | 82% | 988.4 hPa | 0 mm | - | - | - |
| 1777707949 | 0° C | 80% | 987.7 hPa | 0 mm | - | - | - |
| 1777707064 | 0° C | 80% | 987.7 hPa | 0 mm | - | - | - |
| 1777706150 | 0° C | 80% | 987.7 hPa | 0 mm | - | - | - |
| 1777705279 | -0.56° C | 80% | 987.7 hPa | 0 mm | - | - | - |
| 1777704350 | 0° C | 77% | 989 hPa | 0 mm | - | - | - |
* Rain latest hour (hover to see other rain measurements)
** Current wind speed in m/s (hover to see current wind gust speed)